When you browse on this site, cookies collect data to enhance your experience and personalize the content and advertising you see.
Visit our Privacy Policy to learn more. By continuing to use the site, you agree to this use of cookies and data.
  • In Hungary
  • List of Countries
  • For 7 days
  • Water Temperature
  • Satellite Maps
  • Weather Map
  • News
  • Weather Widgets
  • user-avatar
    Login

    Hourly Weather Dikhil

    Today, 21 January, Monday

    Time Temperature Precipitation Wind Pressure Humidity
    00:00 +23°C° 0 mm 6 mps 720 mmHg 69%
    01:00 +23°C° 0 mm 5 mps 720 mmHg 72%
    02:00 +22°C° 0 mm 5 mps 720 mmHg 74%
    03:00 +22°C° 0 mm 4 mps 719 mmHg 76%
    04:00 +21°C° 0 mm 4 mps 720 mmHg 78%
    05:00 +21°C° 0 mm 3 mps 720 mmHg 80%
    06:00 +21°C° 0 mm 3 mps 720 mmHg 82%
    07:00 +22°C° 0 mm 4 mps 721 mmHg 73%
    08:00 +23°C° 0 mm 4 mps 721 mmHg 64%
    09:00 +25°C° 0 mm 5 mps 722 mmHg 55%
    10:00 +27°C° 0 mm 5 mps 722 mmHg 47%
    11:00 +29°C° 0 mm 6 mps 722 mmHg 40%
    12:00 +32°C° 0 mm 6 mps 721 mmHg 32%
    13:00 +32°C° 0 mm 6 mps 721 mmHg 31%
    14:00 +33°C° 0 mm 6 mps 720 mmHg 29%
    15:00 +34°C° 0 mm 6 mps 720 mmHg 28%
    16:00 +32°C° 0 mm 7 mps 719 mmHg 32%
    17:00 +31°C° 0 mm 8 mps 719 mmHg 36%
    18:00 +29°C° 0 mm 8 mps 719 mmHg 41%
    19:00 +28°C° 0 mm 8 mps 719 mmHg 47%
    20:00 +27°C° 0 mm 7 mps 720 mmHg 53%
    21:00 +26°C° 0 mm 6 mps 720 mmHg 59%
    22:00 +24°C° 0 mm 6 mps 720 mmHg 62%
    23:00 +25°C° 0 mm 5 mps 719 mmHg 65%

    Tomorrow, 22 January, Tuesday

    Time Temperature Precipitation Wind Pressure Humidity
    00:00 +23°C° 0 mm 4 mps 719 mmHg 67%
    01:00 +23°C° 0 mm 4 mps 719 mmHg 71%
    02:00 +22°C° 0 mm 4 mps 718 mmHg 74%
    03:00 +22°C° 0 mm 3 mps 718 mmHg 77%
    04:00 +21°C° 0 mm 3 mps 718 mmHg 79%
    05:00 +21°C° 0 mm 3 mps 718 mmHg 81%
    06:00 +21°C° 0 mm 3 mps 719 mmHg 84%
    07:00 +22°C° 0 mm 3 mps 719 mmHg 76%
    08:00 +23°C° 0 mm 4 mps 720 mmHg 69%
    09:00 +26°C° 0 mm 4 mps 721 mmHg 61%
    10:00 +28°C° 0 mm 4 mps 720 mmHg 53%
    11:00 +29°C° 0 mm 4 mps 720 mmHg 45%
    12:00 +32°C° 0 mm 4 mps 720 mmHg 37%
    13:00 +33°C° 0 mm 4 mps 719 mmHg 34%
    14:00 +34°C° 0 mm 4 mps 719 mmHg 32%
    15:00 +35°C° 0 mm 4 mps 718 mmHg 29%
    16:00 +33°C° 0 mm 6 mps 718 mmHg 35%
    17:00 +32°C° 0 mm 7 mps 718 mmHg 40%
    18:00 +31°C° 0 mm 8 mps 718 mmHg 46%
    19:00 +29°C° 0 mm 7 mps 718 mmHg 53%
    20:00 +27°C° 0 mm 7 mps 718 mmHg 61%
    21:00 +26°C° 0 mm 7 mps 719 mmHg 68%
    22:00 +24°C° 0 mm 7 mps 719 mmHg 70%
    23:00 +24°C° 0 mm 6 mps 718 mmHg 72%

    Day after tomorrow, 23 January, Wednesday

    Time Temperature Precipitation Wind Pressure Humidity
    00:00 +23°C° 0 mm 6 mps 718 mmHg 74%
    01:00 +23°C° 0 mm 5 mps 718 mmHg 75%
    02:00 +23°C° 0 mm 5 mps 718 mmHg 76%
    03:00 +22°C° 0 mm 4 mps 717 mmHg 77%
    04:00 +22°C° 0 mm 4 mps 717 mmHg 79%
    05:00 +22°C° 0 mm 3 mps 718 mmHg 81%
    06:00 +21°C° 0 mm 3 mps 718 mmHg 83%
    07:00 +22°C° 0 mm 4 mps 719 mmHg 76%
    08:00 +25°C° 0 mm 5 mps 719 mmHg 70%
    09:00 +26°C° 0 mm 6 mps 720 mmHg 63%
    10:00 +28°C° 0 mm 6 mps 720 mmHg 55%
    11:00 +29°C° 0 mm 6 mps 720 mmHg 47%
    12:00 +32°C° 0 mm 7 mps 720 mmHg 39%
    13:00 +32°C° 0 mm 7 mps 719 mmHg 39%
    14:00 +33°C° 0 mm 8 mps 718 mmHg 38%
    15:00 +33°C° 0 mm 8 mps 717 mmHg 37%
    16:00 +32°C° 0 mm 9 mps 717 mmHg 42%
    17:00 +29°C° 0 mm 9 mps 717 mmHg 47%
    18:00 +28°C° 0 mm 10 mps 718 mmHg 52%
    19:00 +27°C° 0 mm 9 mps 718 mmHg 58%
    20:00 +26°C° 0 mm 8 mps 719 mmHg 63%
    21:00 +24°C° 0 mm 8 mps 720 mmHg 68%
    22:00 +23°C° 0 mm 7 mps 719 mmHg 70%
    23:00 +23°C° 0 mm 6 mps 719 mmHg 71%

    24 January, Thursday

    Time Temperature Precipitation Wind Pressure Humidity
    00:00 +23°C° 0 mm 6 mps 719 mmHg 73%
    01:00 +22°C° 0 mm 5 mps 719 mmHg 75%
    02:00 +22°C° 0 mm 5 mps 718 mmHg 76%
    03:00 +22°C° 0 mm 4 mps 718 mmHg 78%
    04:00 +21°C° 0 mm 4 mps 718 mmHg 79%
    05:00 +21°C° 0 mm 4 mps 719 mmHg 81%
    06:00 +21°C° 0 mm 4 mps 719 mmHg 82%
    07:00 +22°C° 0 mm 5 mps 720 mmHg 76%
    08:00 +23°C° 0 mm 6 mps 721 mmHg 70%
    09:00 +24°C° 0 mm 7 mps 721 mmHg 63%
    10:00 +27°C° 0 mm 7 mps 721 mmHg 55%
    11:00 +29°C° 0 mm 8 mps 721 mmHg 47%
    12:00 +32°C° 0 mm 8 mps 720 mmHg 39%
    13:00 +32°C° 0 mm 8 mps 719 mmHg 38%
    14:00 +32°C° 0 mm 8 mps 719 mmHg 37%
    15:00 +33°C° 0 mm 9 mps 718 mmHg 36%
    16:00 +31°C° 0 mm 9 mps 718 mmHg 42%
    17:00 +29°C° 0 mm 9 mps 718 mmHg 49%
    18:00 +28°C° 0 mm 9 mps 718 mmHg 56%
    19:00 +27°C° 0 mm 9 mps 719 mmHg 61%
    20:00 +26°C° 0 mm 8 mps 719 mmHg 67%
    21:00 +24°C° 0 mm 8 mps 720 mmHg 72%
    22:00 +24°C° 0 mm 7 mps 720 mmHg 73%
    23:00 +23°C° 0 mm 7 mps 720 mmHg 75%

    25 January, Friday

    Time Temperature Precipitation Wind Pressure Humidity
    00:00 +23°C° 0 mm 7 mps 719 mmHg 76%
    01:00 +23°C° 0 mm 6 mps 719 mmHg 77%
    02:00 +23°C° 0 mm 6 mps 719 mmHg 78%
    03:00 +22°C° 0 mm 6 mps 719 mmHg 79%
    04:00 +22°C° 0 mm 7 mps 719 mmHg 79%
    05:00 +22°C° 0 mm 7 mps 719 mmHg 79%
    06:00 +22°C° 0 mm 8 mps 720 mmHg 78%
    07:00 +23°C° 0 mm 8 mps 720 mmHg 73%
    08:00 +24°C° 0 mm 8 mps 721 mmHg 69%
    09:00 +26°C° 0 mm 8 mps 721 mmHg 64%
    10:00 +27°C° 0 mm 9 mps 721 mmHg 57%
    11:00 +29°C° 0 mm 9 mps 721 mmHg 51%
    12:00 +31°C° 0 mm 9 mps 720 mmHg 44%
    13:00 +32°C° 0 mm 9 mps 720 mmHg 44%
    14:00 +32°C° 0 mm 9 mps 719 mmHg 43%
    15:00 +32°C° 0 mm 9 mps 718 mmHg 43%
    16:00 +31°C° 0 mm 9 mps 718 mmHg 47%
    17:00 +29°C° 0 mm 9 mps 719 mmHg 52%
    18:00 +28°C° 0 mm 9 mps 719 mmHg 56%
    19:00 +27°C° 0 mm 8 mps 719 mmHg 60%
    20:00 +26°C° 0 mm 7 mps 719 mmHg 64%
    21:00 +24°C° 0 mm 6 mps 720 mmHg 67%
    22:00 +24°C° 0 mm 6 mps 720 mmHg 70%
    23:00 +23°C° 0 mm 6 mps 719 mmHg 72%

    26 January, Saturday

    Time Temperature Precipitation Wind Pressure Humidity
    00:00 +23°C° 0 mm 6 mps 719 mmHg 75%
    01:00 +22°C° 0 mm 6 mps 719 mmHg 76%
    02:00 +22°C° 0 mm 6 mps 719 mmHg 78%
    03:00 +22°C° 0 mm 6 mps 718 mmHg 79%
    04:00 +22°C° 0 mm 6 mps 719 mmHg 79%
    05:00 +22°C° 0 mm 6 mps 719 mmHg 79%
    06:00 +22°C° 0 mm 6 mps 719 mmHg 79%
    07:00 +23°C° 0 mm 7 mps 720 mmHg 75%
    08:00 +24°C° 0 mm 7 mps 721 mmHg 70%
    09:00 +26°C° 0 mm 8 mps 721 mmHg 65%
    10:00 +27°C° 0 mm 8 mps 721 mmHg 58%
    11:00 +29°C° 0 mm 8 mps 721 mmHg 51%
    12:00 +31°C° 0 mm 9 mps 720 mmHg 45%
    13:00 +32°C° 0 mm 9 mps 720 mmHg 43%
    14:00 +32°C° 0 mm 9 mps 719 mmHg 42%
    15:00 +32°C° 0 mm 10 mps 718 mmHg 40%
    16:00 +31°C° 0 mm 10 mps 718 mmHg 43%
    17:00 +29°C° 0 mm 10 mps 718 mmHg 45%
    18:00 +28°C° 0 mm 10 mps 719 mmHg 48%
    19:00 +27°C° 0 mm 10 mps 719 mmHg 51%
    20:00 +26°C° 0 mm 9 mps 719 mmHg 54%
    21:00 +24°C° 0 mm 8 mps 720 mmHg 57%
    22:00 +24°C° 0 mm 8 mps 720 mmHg 60%
    23:00 +23°C° 0 mm 8 mps 720 mmHg 63%
    Show more